PAY1100 TTCP-MYNN

Flight info

Callsign PAY1100
Flight time N/A
Altitude 34000
Route TTCP/11 VODAN DCT PERGA DCT PERRY DCT PELMA DCT ANADA DCT SATOE DCT LRN DCT PTA DCT MALVN DCT RUMFO
Aircraft B738/M-SBDE1E2E3FGHRWXY/LB1

Departure

Time 2026-04-24 18:55
Airport A.N.R. Robinson International Airport (TTCP)

Arrival

Time N/A
Airport Lynden Pindling International Airport (MYNN)
Time Latitude Longitude Altitude Speed Heading
2026-04-24 18:54 11.15033 -60.84142 44 ft 71 kts 95°
2026-04-24 18:55 11.14911 -60.82237 280 ft 175 kts 92°
2026-04-24 18:55 11.14880 -60.80912 614 ft 201 kts 93°
2026-04-24 18:55 11.14818 -60.79494 1476 ft 202 kts 93°
2026-04-24 18:56 11.14756 -60.78136 2376 ft 193 kts 93°
2026-04-24 18:56 11.14681 -60.76688 2563 ft 220 kts 93°
2026-04-24 18:56 11.14592 -60.75138 3327 ft 217 kts 93°
2026-04-24 18:56 11.14497 -60.73513 3500 ft 248 kts 94°
2026-04-24 18:57 11.14391 -60.71672 3860 ft 266 kts 93°
2026-04-24 18:57 11.14295 -60.69917 5280 ft 238 kts 94°
2026-04-24 18:57 11.14371 -60.68239 5814 ft 248 kts 72°
2026-04-24 18:57 11.15368 -60.66793 6424 ft 260 kts 37°
2026-04-24 18:58 11.17088 -60.66068 6974 ft 275 kts
2026-04-24 18:58 11.19014 -60.66266 7521 ft 287 kts 340°
2026-04-24 18:58 11.20737 -60.67343 8183 ft 294 kts 317°
2026-04-24 18:58 11.21944 -60.69029 8908 ft 298 kts 296°
2026-04-24 18:59 11.22730 -60.70970 9616 ft 300 kts 289°
2026-04-24 18:59 11.23410 -60.72984 10291 ft 303 kts 289°
2026-04-24 18:59 11.24126 -60.75055 10688 ft 319 kts 290°
2026-04-24 18:59 11.24925 -60.77212 11107 ft 332 kts 291°
2026-04-24 19:00 11.25792 -60.79454 11424 ft 346 kts 291°
2026-04-24 19:00 11.26709 -60.81784 11769 ft 360 kts 291°
2026-04-24 19:00 11.27665 -60.84206 12170 ft 372 kts 291°
2026-04-24 19:00 11.28631 -60.86655 12808 ft 375 kts 291°
2026-04-24 19:01 11.29602 -60.89119 13532 ft 375 kts 291°
2026-04-24 19:01 11.30579 -60.91606 14127 ft 379 kts 291°
2026-04-24 19:01 11.31569 -60.94136 14628 ft 385 kts 291°
2026-04-24 19:01 11.32561 -60.96669 14896 ft 390 kts 291°
2026-04-24 19:02 11.33233 -60.98386 14951 ft 391 kts 291°
2026-04-24 19:02 11.34609 -61.01903 15494 ft 397 kts 291°
2026-04-24 19:02 11.35628 -61.04511 16212 ft 395 kts 291°
2026-04-24 19:02 11.36661 -61.07153 16710 ft 399 kts 291°
2026-04-24 19:03 11.37689 -61.09784 17189 ft 403 kts 291°
2026-04-24 19:03 11.38731 -61.12452 17701 ft 405 kts 291°
2026-04-24 19:03 11.39774 -61.15121 18181 ft 409 kts 291°
2026-04-24 19:03 11.40835 -61.17836 18683 ft 411 kts 291°
2026-04-24 19:04 11.41897 -61.20557 19130 ft 414 kts 291°
2026-04-24 19:04 11.42959 -61.23275 19579 ft 418 kts 291°
2026-04-24 19:04 11.44044 -61.26054 20064 ft 420 kts 290°
2026-04-24 19:04 11.45124 -61.28821 20511 ft 422 kts 291°
2026-04-24 19:05 11.46211 -61.31607 20954 ft 425 kts 290°
2026-04-24 19:05 11.47297 -61.34391 21365 ft 428 kts 290°
2026-04-24 19:05 11.48406 -61.37237 21785 ft 430 kts 290°
2026-04-24 19:05 11.49514 -61.40083 22181 ft 433 kts 290°
2026-04-24 19:06 11.50633 -61.42958 22603 ft 435 kts 290°
2026-04-24 19:06 11.51753 -61.45835 23023 ft 438 kts 291°
2026-04-24 19:06 11.52866 -61.48696 23434 ft 440 kts 291°
2026-04-24 19:06 11.54002 -61.51617 23898 ft 441 kts 291°
2026-04-24 19:07 11.55140 -61.54541 24326 ft 442 kts 290°
2026-04-24 19:07 11.56272 -61.57452 24718 ft 445 kts 290°
2026-04-24 19:07 11.57026 -61.59392 24992 ft 446 kts 290°
2026-04-24 19:07 11.58566 -61.63356 25541 ft 448 kts 291°
2026-04-24 19:08 11.59717 -61.66319 25909 ft 450 kts 290°
2026-04-24 19:08 11.60866 -61.69280 26294 ft 452 kts 290°
2026-04-24 19:08 11.62031 -61.72283 26697 ft 453 kts 290°
2026-04-24 19:08 11.63188 -61.75264 27087 ft 455 kts 290°
2026-04-24 19:09 11.64347 -61.78253 27434 ft 457 kts 290°
2026-04-24 19:09 11.65518 -61.81277 27779 ft 459 kts 290°
2026-04-24 19:09 11.66697 -61.84318 28170 ft 460 kts 290°
2026-04-24 19:09 11.67873 -61.87354 28516 ft 462 kts 291°
2026-04-24 19:10 11.69064 -61.90431 28986 ft 460 kts 290°
2026-04-24 19:10 11.70233 -61.93450 29431 ft 460 kts 290°
2026-04-24 19:10 11.71413 -61.96497 29789 ft 461 kts 290°
2026-04-24 19:10 11.72585 -61.99525 30140 ft 462 kts 290°
2026-04-24 19:11 11.73765 -62.02577 30527 ft 462 kts 290°
2026-04-24 19:11 11.74939 -62.05615 30915 ft 461 kts 290°
2026-04-24 19:11 11.76124 -62.08680 31270 ft 462 kts 289°
2026-04-24 19:11 11.77300 -62.11721 31584 ft 463 kts 290°
2026-04-24 19:12 11.78583 -62.14733 31884 ft 465 kts 294°
2026-04-24 19:12 11.80126 -62.17635 32164 ft 468 kts 300°
2026-04-24 19:12 11.81991 -62.20415 32426 ft 471 kts 305°
2026-04-24 19:12 11.84136 -62.22990 32715 ft 474 kts 311°
2026-04-24 19:13 11.85689 -62.24560 32915 ft 475 kts 315°
2026-04-24 19:13 11.89156 -62.27407 33459 ft 475 kts 323°
2026-04-24 19:13 11.91996 -62.29215 33856 ft 475 kts 329°
2026-04-24 19:14 11.98066 -62.32006 33904 ft 477 kts 336°
2026-04-24 19:14 12.04199 -62.34651 33905 ft 475 kts 334°
2026-04-24 19:15 12.10198 -62.37632 33909 ft 476 kts 330°
2026-04-24 19:15 12.16040 -62.40875 33905 ft 475 kts 329°
2026-04-24 19:16 12.24668 -62.45974 33905 ft 477 kts 327°
2026-04-24 19:16 12.30389 -62.49425 33905 ft 474 kts 327°
2026-04-24 19:17 12.36089 -62.52877 33903 ft 475 kts 327°
2026-04-24 19:17 12.41767 -62.56317 33906 ft 474 kts 327°
2026-04-24 19:18 12.47513 -62.59799 33906 ft 475 kts 327°
2026-04-24 19:18 12.53190 -62.63238 33906 ft 475 kts 327°
2026-04-24 19:19 12.58913 -62.66708 33908 ft 474 kts 327°
2026-04-24 19:19 12.64601 -62.70156 33908 ft 473 kts 327°
2026-04-24 19:20 12.70294 -62.73611 33907 ft 474 kts 327°
2026-04-24 19:20 12.75945 -62.77040 33907 ft 472 kts 326°
2026-04-24 19:21 12.81620 -62.80486 33906 ft 474 kts 326°
2026-04-24 19:21 12.87338 -62.83960 33907 ft 473 kts 327°
2026-04-24 19:22 12.93026 -62.87418 33906 ft 473 kts 327°
2026-04-24 19:22 12.98716 -62.90880 33906 ft 473 kts 327°
2026-04-24 19:23 13.04362 -62.94316 33915 ft 472 kts 326°
2026-04-24 19:23 13.10036 -62.97771 33925 ft 471 kts 326°
2026-04-24 19:24 13.15693 -63.01217 33925 ft 470 kts 326°
2026-04-24 19:24 13.21339 -63.04657 33925 ft 469 kts 326°
2026-04-24 19:25 13.26982 -63.08100 33924 ft 470 kts 326°
2026-04-24 19:25 13.32614 -63.11537 33928 ft 471 kts 326°
2026-04-24 19:26 13.38264 -63.14985 33927 ft 470 kts 326°
2026-04-24 19:26 13.43897 -63.18425 33926 ft 470 kts 326°
2026-04-24 19:27 13.49547 -63.21876 33925 ft 470 kts 326°
2026-04-24 19:27 13.55154 -63.25303 33925 ft 468 kts 326°
2026-04-24 19:28 13.60806 -63.28760 33928 ft 469 kts 326°
2026-04-24 19:28 13.66409 -63.32191 33926 ft 468 kts 326°
2026-04-24 19:29 13.74854 -63.37363 33925 ft 469 kts 326°
2026-04-24 19:30 13.80467 -63.40802 33925 ft 468 kts 326°
2026-04-24 19:30 13.86103 -63.44258 33924 ft 468 kts 326°
2026-04-24 19:31 13.91731 -63.47710 33925 ft 468 kts 326°
2026-04-24 19:31 13.97333 -63.51150 33926 ft 467 kts 326°
2026-04-24 19:32 14.02928 -63.54587 33925 ft 467 kts 325°
2026-04-24 19:32 14.08530 -63.58030 33923 ft 467 kts 325°
2026-04-24 19:33 14.14163 -63.61495 33926 ft 468 kts 325°
2026-04-24 19:33 14.19781 -63.64954 33924 ft 467 kts 325°
2026-04-24 19:34 14.25401 -63.68418 33922 ft 467 kts 325°
2026-04-24 19:34 14.30983 -63.71859 33919 ft 467 kts 325°
2026-04-24 19:35 14.36610 -63.75330 33913 ft 467 kts 325°
2026-04-24 19:35 14.42184 -63.78769 33914 ft 465 kts 325°
2026-04-24 19:36 14.47763 -63.82214 33915 ft 465 kts 325°
2026-04-24 19:36 14.53363 -63.85676 33918 ft 465 kts 325°
2026-04-24 19:37 14.58920 -63.89114 33916 ft 464 kts 324°
2026-04-24 19:37 14.64492 -63.92563 33925 ft 465 kts 325°
2026-04-24 19:38 14.70061 -63.96011 33928 ft 464 kts 324°
2026-04-24 19:38 14.75627 -63.99458 33926 ft 463 kts 325°
2026-04-24 19:39 14.81215 -64.02922 33920 ft 464 kts 324°
2026-04-24 19:39 14.86754 -64.06358 33922 ft 463 kts 324°
2026-04-24 19:40 14.92312 -64.09806 33924 ft 463 kts 324°
2026-04-24 19:40 14.97779 -64.13387 33923 ft 459 kts 319°
2026-04-24 19:41 15.02368 -64.17905 33927 ft 452 kts 306°
2026-04-24 19:41 15.06222 -64.23038 33925 ft 448 kts 302°
2026-04-24 19:42 15.09861 -64.28256 33926 ft 447 kts 301°
2026-04-24 19:42 15.13522 -64.33532 33926 ft 448 kts 301°
2026-04-24 19:43 15.17193 -64.38777 33925 ft 448 kts 302°
2026-04-24 19:43 15.20878 -64.44009 33925 ft 446 kts 302°
2026-04-24 19:44 15.24537 -64.49191 33926 ft 447 kts 302°
2026-04-24 19:44 15.28225 -64.54411 33926 ft 446 kts 302°
2026-04-24 19:45 15.31898 -64.59611 33925 ft 446 kts 302°
2026-04-24 19:45 15.35539 -64.64769 33925 ft 446 kts 301°
2026-04-24 19:46 15.39236 -64.70010 33925 ft 446 kts 301°
2026-04-24 19:46 15.42884 -64.75186 33926 ft 447 kts 301°
2026-04-24 19:47 15.46560 -64.80405 33925 ft 446 kts 301°
2026-04-24 19:47 15.50246 -64.85643 33926 ft 447 kts 301°
2026-04-24 19:48 15.53886 -64.90817 33926 ft 445 kts 301°
2026-04-24 19:48 15.59403 -64.98669 33925 ft 444 kts 301°
2026-04-24 19:49 15.66715 -65.09087 33926 ft 445 kts 301°
2026-04-24 19:50 15.74024 -65.19515 33926 ft 446 kts 301°
2026-04-24 19:51 15.79492 -65.27322 33926 ft 445 kts 301°
2026-04-24 19:52 15.84976 -65.35166 33926 ft 445 kts 301°
2026-04-24 19:52 15.88625 -65.40389 33928 ft 445 kts 301°
2026-04-24 19:53 15.92257 -65.45590 33925 ft 444 kts 301°
2026-04-24 19:54 15.97733 -65.53441 33926 ft 445 kts 301°
2026-04-24 19:54 16.01380 -65.58673 33924 ft 445 kts 301°
2026-04-24 19:55 16.04401 -65.63009 33926 ft 444 kts 301°
2026-04-24 19:55 16.08626 -65.69081 33924 ft 445 kts 301°
2026-04-24 19:56 16.12277 -65.74331 33926 ft 444 kts 301°
2026-04-24 19:56 16.15898 -65.79542 33927 ft 444 kts 301°
2026-04-24 19:57 16.19536 -65.84780 33920 ft 443 kts 301°
2026-04-24 19:57 16.23143 -65.89977 33917 ft 444 kts 301°
2026-04-24 19:58 16.26758 -65.95189 33927 ft 442 kts 301°
2026-04-24 19:58 16.30367 -66.00397 33919 ft 442 kts 301°
2026-04-24 19:59 16.33966 -66.05595 33928 ft 442 kts 301°
2026-04-24 19:59 16.37572 -66.10802 33926 ft 441 kts 301°
2026-04-24 20:00 16.41148 -66.15972 33924 ft 441 kts 300°
2026-04-24 20:00 16.44750 -66.21184 33924 ft 441 kts 301°
2026-04-24 20:01 16.48369 -66.26426 33926 ft 440 kts 300°
2026-04-24 20:01 16.51964 -66.31638 33925 ft 441 kts 301°
2026-04-24 20:02 16.54961 -66.35985 33924 ft 440 kts 300°
2026-04-24 20:02 16.59137 -66.42042 33923 ft 440 kts 300°
2026-04-24 20:03 16.62728 -66.47257 33926 ft 438 kts 300°
2026-04-24 20:03 16.66303 -66.52455 33926 ft 438 kts 300°
2026-04-24 20:04 16.69869 -66.57644 33924 ft 438 kts 300°
2026-04-24 20:04 16.73446 -66.62852 33925 ft 439 kts 300°
2026-04-24 20:05 16.77013 -66.68047 33925 ft 438 kts 300°
2026-04-24 20:05 16.80599 -66.73272 33925 ft 438 kts 300°
2026-04-24 20:06 16.84137 -66.78433 33925 ft 437 kts 300°
2026-04-24 20:06 16.87704 -66.83642 33926 ft 437 kts 300°
2026-04-24 20:07 16.90652 -66.87950 33925 ft 437 kts 300°
2026-04-24 20:07 16.94783 -66.93989 33925 ft 437 kts 300°
2026-04-24 20:08 16.98322 -66.99166 33926 ft 436 kts 300°
2026-04-24 20:08 17.01870 -67.04359 33926 ft 437 kts 299°
2026-04-24 20:09 17.05410 -67.09547 33927 ft 436 kts 299°
2026-04-24 20:09 17.08954 -67.14746 33925 ft 437 kts 299°
2026-04-24 20:10 17.12479 -67.19917 33926 ft 437 kts 299°
2026-04-24 20:10 17.16009 -67.25101 33926 ft 436 kts 299°
2026-04-24 20:11 17.19552 -67.30311 33925 ft 437 kts 299°
2026-04-24 20:11 17.23089 -67.35515 33921 ft 436 kts 299°
2026-04-24 20:12 17.26608 -67.40694 33919 ft 437 kts 299°
2026-04-24 20:12 17.30132 -67.45888 33917 ft 438 kts 299°
2026-04-24 20:13 17.33677 -67.51111 33920 ft 436 kts 299°
2026-04-24 20:13 17.37198 -67.56304 33917 ft 438 kts 299°
2026-04-24 20:14 17.40733 -67.61523 33917 ft 436 kts 299°
2026-04-24 20:14 17.44236 -67.66698 33919 ft 437 kts 298°
2026-04-24 20:15 17.47771 -67.71926 33917 ft 435 kts 298°
2026-04-24 20:15 17.51287 -67.77129 33915 ft 436 kts 298°
2026-04-24 20:16 17.54801 -67.82335 33911 ft 436 kts 298°
2026-04-24 20:16 17.58306 -67.87530 33907 ft 436 kts 298°
2026-04-24 20:17 17.61825 -67.92750 33905 ft 436 kts 298°
2026-04-24 20:17 17.67147 -68.00510 33905 ft 436 kts 301°
2026-04-24 20:18 17.71147 -68.05373 33905 ft 441 kts 305°
2026-04-24 20:18 17.75305 -68.10079 33906 ft 440 kts 306°
2026-04-24 20:19 17.79497 -68.14809 33914 ft 441 kts 306°
2026-04-24 20:19 17.83658 -68.19546 33920 ft 438 kts 305°
2026-04-24 20:20 17.87774 -68.24268 33923 ft 439 kts 305°
2026-04-24 20:20 17.91908 -68.29035 33925 ft 439 kts 305°
2026-04-24 20:21 17.96014 -68.33774 33924 ft 436 kts 305°
2026-04-24 20:21 18.00106 -68.38505 33925 ft 436 kts 305°
2026-04-24 20:22 18.04230 -68.43282 33926 ft 437 kts 304°
2026-04-24 20:22 18.08293 -68.47988 33927 ft 435 kts 305°
2026-04-24 20:23 18.12399 -68.52747 33925 ft 433 kts 305°
2026-04-24 20:23 18.16464 -68.57463 33926 ft 435 kts 305°
2026-04-24 20:24 18.20522 -68.62174 33927 ft 434 kts 304°
2026-04-24 20:24 18.24561 -68.66863 33929 ft 431 kts 304°
2026-04-24 20:25 18.28645 -68.71610 33932 ft 433 kts 304°
2026-04-24 20:25 18.32679 -68.76307 33936 ft 433 kts 304°
2026-04-24 20:26 18.36750 -68.81045 33937 ft 431 kts 304°
2026-04-24 20:26 18.40795 -68.85758 33941 ft 431 kts 304°
2026-04-24 20:27 18.44841 -68.90479 33944 ft 432 kts 304°
2026-04-24 20:27 18.48801 -68.95245 33946 ft 427 kts 302°
2026-04-24 20:28 18.52640 -69.00101 33947 ft 427 kts 302°
2026-04-24 20:28 18.56462 -69.04964 33944 ft 426 kts 302°
2026-04-24 20:29 18.60266 -69.09775 33945 ft 427 kts 302°
2026-04-24 20:29 18.64097 -69.14608 33941 ft 427 kts 302°
2026-04-24 20:30 18.67929 -69.19436 33939 ft 427 kts 302°
2026-04-24 20:30 18.71769 -69.24274 33936 ft 426 kts 302°
2026-04-24 20:31 18.75587 -69.29091 33935 ft 428 kts 302°
2026-04-24 20:31 18.79388 -69.33885 33932 ft 425 kts 302°
2026-04-24 20:32 18.83209 -69.38711 33931 ft 426 kts 302°
2026-04-24 20:32 18.87018 -69.43523 33929 ft 425 kts 302°
2026-04-24 20:33 18.90823 -69.48338 33926 ft 425 kts 302°
2026-04-24 20:33 18.94627 -69.53153 33927 ft 424 kts 302°
2026-04-24 20:34 18.98431 -69.57974 33929 ft 425 kts 302°
2026-04-24 20:34 19.02237 -69.62801 33931 ft 425 kts 302°
2026-04-24 20:35 19.06017 -69.67596 33928 ft 425 kts 302°
2026-04-24 20:35 19.09810 -69.72414 33922 ft 425 kts 302°
2026-04-24 20:36 19.13596 -69.77227 33918 ft 426 kts 302°
2026-04-24 20:36 19.17402 -69.82065 33916 ft 426 kts 302°
2026-04-24 20:37 19.21173 -69.86861 33914 ft 424 kts 302°
2026-04-24 20:37 19.24958 -69.91683 33916 ft 425 kts 302°
2026-04-24 20:38 19.28761 -69.96532 33918 ft 426 kts 302°
2026-04-24 20:38 19.32540 -70.01353 33923 ft 426 kts 302°
2026-04-24 20:39 19.36346 -70.06212 33918 ft 426 kts 302°
2026-04-24 20:39 19.40157 -70.11083 33925 ft 426 kts 302°